Wetbulb
72.16 71.40 71.62 71.56 71.48 70.43 69.16 69.69 70.91 73.42 73.86 73.81 72.82 72.51 73.05 72.48 72.87 70.70 72.53 71.98 70.84 70.44
72.25 72.30 72.11 71.63 71.90 70.91 69.37 70.17 71.10 71.83 71.87 73.76 73.46 73.28 74.81 72.34 71.97 72.42 71.57 71.31 71.13 71.56
73.14 73.04 73.14 72.67 71.67 68.82 70.41 70.82 69.89 67.62 70.60 71.25 73.55 73.46 73.39 71.94 71.89 71.24 71.46 71.46 70.08 71.15
73.06 73.29 73.37 72.35 71.89 71.28 71.37 69.49 67.11 67.97 71.10 72.20 71.85 73.19 72.35 71.80 71.73 71.20 70.43 71.32 71.24 71.04
73.08 73.02 72.78 72.80 71.80 72.03 71.43 70.12 71.43 70.97 71.03 72.74 72.38 72.50 72.44 71.94 71.57 70.61 68.04 66.44 70.79 71.02
72.99 73.30 72.89 72.81 72.61 72.99 71.96 71.66 72.34 72.59 72.16 72.24 72.12 72.15 72.27 72.26 71.02 69.97 66.48 68.77 71.17 71.14
72.80 72.64 72.97 72.67 72.59 73.43 73.27 72.01 72.58 72.59 72.86 72.72 72.97 72.89 72.59 72.44 71.50 70.75 71.19 72.00 72.41 72.10
73.22 73.64 73.22 73.02 72.74 73.22 72.83 72.34 72.67 72.78 72.82 72.83 72.94 73.64 72.08 71.93 71.62 71.17 70.41 71.45 71.47 69.42
72.75 73.02 72.65 71.84 71.59 72.12 73.05 72.40 72.59 72.37 72.74 72.46 74.06 66.57 67.88 72.45 71.25 70.85 71.12 70.76 70.70 68.37
71.83 70.56 71.49 69.99 70.82 71.57 71.44 72.52 72.36 71.97 71.74 71.34 66.42 65.79 65.84 67.91 71.51 70.45 70.96 70.69 70.99 71.93
70.11 69.25 70.69 71.58 71.05 70.75 70.87 70.20 70.12 70.38 71.19 65.90 63.24 64.18 64.99 67.13 69.11 70.27 68.26 66.93 67.22 69.79
70.16 68.91 69.36 69.11 69.11 70.44 70.54 69.83 68.07 68.07 68.23 64.89 64.20 63.09 62.42 64.55 69.35 67.89 64.71 61.83 61.38 66.53
67.94 68.12 67.67 68.44 69.27 69.65 70.53 67.64 65.15 63.64 64.23 63.36 61.31 58.13 59.26 64.75 69.25 67.26 65.00 62.63 60.99 59.32
67.53 66.74 67.85 67.96 68.66 66.90 64.93 63.10 61.11 59.46 59.34 58.78 58.66 59.18 57.31 60.75 67.01 67.17 65.20 61.63 59.18 57.83
MSLP
1014.09 1014.38 1014.64 1014.72 1014.90 1014.87 1015.01 1015.00 1014.98 1014.98 1014.96 1015.06 1015.64 1015.98 1016.09 1015.91 1016.15 1016.42 1016.28 1016.35 1016.61 1016.71
1013.56 1013.84 1014.20 1014.32 1014.34 1014.41 1014.75 1015.03 1014.74 1014.66 1015.00 1015.04 1015.01 1015.02 1015.29 1015.58 1015.86 1016.04 1016.10 1016.13 1016.47 1016.21
1013.13 1013.33 1013.70 1013.91 1014.03 1014.19 1014.53 1014.69 1014.71 1014.87 1014.92 1014.86 1014.93 1014.94 1015.17 1015.53 1015.78 1015.93 1015.95 1016.10 1016.27 1016.30
1012.70 1012.87 1013.23 1013.60 1013.61 1013.91 1014.22 1014.35 1014.77 1014.81 1014.77 1014.69 1014.62 1014.85 1015.03 1015.27 1015.53 1015.75 1015.82 1015.87 1016.06 1015.86
1012.14 1012.47 1012.84 1013.18 1013.32 1013.38 1013.82 1014.03 1014.35 1014.56 1014.71 1014.71 1014.70 1014.81 1014.94 1015.28 1015.52 1015.53 1015.63 1015.68 1015.84 1015.59
1011.40 1011.85 1012.17 1012.54 1012.98 1013.21 1013.34 1013.62 1013.94 1014.26 1014.47 1014.60 1014.76 1014.79 1014.95 1015.18 1015.51 1015.40 1015.42 1015.54 1015.67 1015.52
1010.34 1010.63 1011.01 1011.48 1012.02 1012.53 1012.80 1013.24 1013.58 1013.79 1014.03 1014.37 1014.55 1014.72 1014.83 1014.94 1015.31 1015.33 1015.37 1015.57 1015.51 1015.53
1009.18 1009.72 1010.68 1011.22 1011.41 1011.44 1012.06 1012.60 1013.02 1013.43 1013.78 1014.12 1014.44 1014.70 1014.67 1014.73 1014.90 1015.02 1015.27 1015.31 1015.58 1015.78
1008.78 1009.83 1010.01 1010.77 1011.54 1010.96 1011.38 1012.01 1012.53 1012.93 1013.46 1013.95 1014.33 1014.51 1014.55 1014.59 1014.71 1014.89 1015.10 1015.35 1015.67 1016.00
1008.92 1009.23 1009.28 1009.89 1010.84 1010.80 1011.06 1011.53 1012.26 1012.60 1013.03 1013.64 1014.29 1014.59 1014.67 1014.64 1014.58 1014.80 1015.04 1015.29 1015.56 1015.99
1008.65 1009.14 1009.40 1010.17 1010.17 1010.11 1010.82 1011.72 1012.18 1012.48 1012.68 1013.64 1014.53 1014.61 1014.74 1014.77 1014.86 1015.02 1015.35 1015.58 1015.81 1016.03
1008.66 1008.68 1008.87 1009.23 1009.93 1010.34 1011.15 1011.96 1012.62 1012.74 1012.89 1013.50 1014.43 1014.72 1014.65 1014.66 1014.86 1015.30 1015.82 1016.10 1016.25 1016.31
1008.98 1008.87 1009.08 1009.31 1009.74 1010.17 1010.92 1011.34 1012.76 1013.46 1013.56 1013.86 1014.42 1014.84 1014.52 1014.43 1014.85 1015.38 1015.95 1016.46 1016.58 1016.81
1009.57 1009.51 1009.44 1009.49 1009.88 1010.60 1011.38 1012.36 1013.11 1013.53 1014.19 1014.32 1014.65 1014.77 1014.74 1014.68 1014.71 1015.07 1016.04 1016.54 1017.12 1017.11
Wind_Speed
8 4 4 4 3 3 4 4 2 4 3 5 7 8 6 2 0 1 4 5 4 3
7 7 6 7 5 4 3 3 4 3 2 5 5 5 4 3 1 3 1 2 4 1
9 7 6 4 6 5 5 5 2 2 5 5 4 4 5 1 3 1 1 2 2 2
8 9 7 6 6 6 6 6 4 6 5 5 2 3 2 3 3 2 2 2 4 5
10 8 8 7 8 7 7 7 6 6 5 4 3 3 3 4 3 5 4 6 4 5
12 11 10 9 8 9 8 8 7 7 7 5 5 4 3 5 6 6 5 5 5 7
15 14 13 12 10 8 9 7 7 6 6 6 5 5 6 5 7 5 5 5 2 4
15 14 12 11 11 9 8 8 7 6 6 5 5 4 5 5 5 5 4 2 5 4
10 11 10 7 7 8 8 8 8 7 7 6 3 4 3 6 6 3 1 1 5 5
5 7 14 15 11 9 8 7 9 7 7 7 6 5 3 4 4 4 3 4 4 4
6 5 9 14 11 7 6 7 6 6 7 8 5 4 1 2 1 5 6 6 5 5
6 5 5 6 6 4 3 2 2 3 2 9 6 4 2 3 5 7 7 6 5 7
4 4 3 4 6 4 4 7 5 6 6 9 6 3 4 5 5 8 7 6 6 11
5 5 5 5 4 7 9 9 8 9 5 6 4 3 3 4 3 7 6 5 3 3
Wind_Direction
202 203 197 215 190 163 170 195 196 125 187 219 174 183 213 126 96 280 335 347 53 123
191 195 204 219 211 196 173 210 173 146 201 269 225 208 182 128 86 197 241 344 60 117
187 195 200 200 219 192 171 208 155 217 253 264 213 203 150 156 74 334 304 65 8 216
193 191 191 198 215 195 172 204 186 218 240 241 242 260 148 183 234 128 344 308 252 277
191 185 194 193 213 208 190 182 205 212 235 221 208 255 237 188 149 181 229 255 289 260
190 187 194 202 207 208 192 191 192 189 212 209 211 235 234 196 182 198 221 255 263 240
191 193 194 199 206 198 190 178 190 198 203 207 213 229 244 232 179 212 236 238 23 57
195 192 191 193 199 187 179 181 185 187 196 207 215 236 241 229 205 219 256 37 106 68
211 188 197 198 222 185 171 175 181 191 186 200 184 103 40 240 187 196 197 50 104 121
240 199 189 225 219 189 179 171 188 187 189 187 137 123 102 26 132 131 122 90 76 131
266 226 188 193 226 199 186 197 192 197 196 118 98 83 69 121 143 102 91 87 59 111
272 246 214 197 179 147 49 12 72 58 176 132 138 172 186 198 163 120 98 79 58 79
11 34 299 210 178 178 160 149 111 77 61 118 121 94 128 137 140 129 124 104 81 66
30 51 64 58 100 116 121 122 114 101 79 76 62 71 67 74 132 133 123 110 101 87